Content
SEND FEEDBACK

Daily
Averages
Monthly
Summary
Mexico

PLAYA DEL CARMEN, QUINTANA ROO


Home > North America > Mexico > Quintana Roo
Elevation: 30 feet     Latitude: 20 38N     Longitude: 087 04W

WEATHER
 
SELECT A DAY
Number of Records: 191,265;   Date Range: 2/21/06 - 4/15/14
 
SHARE

PRINT THIS DATA

[ ← Previous Day ]
WEATHER ALMANAC - APRIL 24, 2013
[ Next Day → ]
[ °C ]   °F
Weather ElementAverageHighLow
Temperature74 °F87.8 °F (4:15 pm)60.8 °F (4:15 am)
Dewpoint44.3 °F66.2 °F (8:55 am) (7:00 pm)
Humidity53.6 %100 % (3:35 am)27 % (3:55 pm)
Barometer30.14 in30.18 in (10:15 am)30.10 in (4:15 pm)
Wind Speed4 mph9.2 mph (10:55 am)
Weather ElementAverage
Visibility9.6 mi
Wind DirectionESE (109.9 °)

Weather ElementTotal
Precipitation---
Cooling Degree Days9.3 (Base 65)
Growing Degree Days24.3 (Base 50)
Averaged from 68 records on April 24, 2013
WEATHER CONDITIONS BREAKOUT
WIND DIRECTION BREAKOUT
WEATHER BY HOUR - APRIL 24, 2013
[ °C ]   °F
Local TimeTemperatureDewpointHumidityBarometerVisibilityWind DirectionWind SpeedGust SpeedPrecipitationEventsConditions
12:35 AM68.0 °F60.8 °F78 %30.14 in10.0 miEast (90°)4.6 mphClear
12:55 AM66.2 °F60.8 °F83 %30.14 in10.0 miENE (70°)4.6 mphClear
1:15 AM66.2 °F60.8 °F83 %30.14 in10.0 miENE (70°)3.5 mphClear
1:35 AM64.4 °F60.8 °F88 %30.14 in10.0 miEast (80°)3.5 mphClear
1:55 AM64.4 °F60.8 °F88 %30.13 in10.0 miENE (70°)3.5 mphClear
2:15 AM64.4 °F60.8 °F88 %30.13 in10.0 miEast (80°)4.6 mphClear
2:35 AM64.4 °F60.8 °F88 %30.12 in10.0 miENE (70°)4.6 mphClear
2:55 AM62.6 °F60.8 °F94 %30.12 in10.0 miNE (50°)4.6 mphClear
3:15 AM64.4 °F62.6 °F94 %30.12 in10.0 miNE (40°)3.5 mphClear
3:35 AM62.6 °F62.6 °F100 %30.12 in10.0 miCalmClear
3:55 AM62.6 °F0.0 °F30.12 in10.0 miCalmClear
4:15 AM60.8 °F0.0 °F30.12 in10.0 miCalmClear
4:35 AM60.8 °F0.0 °F30.12 in10.0 miNE (40°)4.6 mphClear
4:55 AM60.8 °F0.0 °F30.12 in10.0 miNE (40°)4.6 mphClear
5:15 AM60.8 °F0.0 °F30.12 in7.0 miCalmClear
5:35 AM60.8 °F0.0 °F30.13 in7.0 miENE (60°)4.6 mphClear
5:55 AM60.8 °F0.0 °F30.13 in7.0 miCalmClear
6:15 AM60.8 °F0.0 °F30.13 in7.0 miENE (60°)4.6 mphClear
6:35 AM60.8 °F0.0 °F30.13 in7.0 miENE (60°)4.6 mphClear
6:55 AM60.8 °F0.0 °F30.14 in7.0 miCalmClear
7:15 AM60.8 °F0.0 °F30.14 in7.0 miNE (50°)3.5 mphClear
7:35 AM60.8 °F0.0 °F30.15 in7.0 miENE (60°)4.6 mphClear
7:55 AM62.6 °F0.0 °F30.15 in7.0 miENE (60°)4.6 mphClear
8:15 AM64.4 °F0.0 °F30.16 in10.0 miENE (60°)4.6 mphClear
8:35 AM66.2 °F0.0 °F30.16 in10.0 miEast (80°)4.6 mphClear
8:55 AM69.8 °F66.2 °F88 %30.17 in10.0 miEast (80°)3.5 mphClear
9:15 AM71.6 °F62.6 °F73 %30.17 in10.0 miEast (90°)3.5 mphClear
9:35 AM73.4 °F62.6 °F69 %30.17 in10.0 miEast (90°)5.8 mphClear
9:55 AM75.2 °F60.8 °F61 %30.17 in10.0 miEast (100°)8.1 mphClear
10:15 AM77.0 °F62.6 °F61 %30.18 in10.0 miESE (120°)8.1 mphClear
10:35 AM77.0 °F60.8 °F57 %30.17 in10.0 miESE (120°)8.1 mphClear
10:55 AM78.8 °F59.0 °F51 %30.17 in10.0 miSE (130°)9.2 mphClear
11:15 AM80.6 °F57.2 °F45 %30.17 in10.0 miESE (120°)8.1 mphClear
11:35 AM80.6 °F55.4 °F42 %30.17 in10.0 miESE (110°)8.1 mphClear
11:55 AM80.6 °F55.4 °F42 %30.17 in10.0 miESE (110°)9.2 mphClear
12:15 PM82.4 °F53.6 °F37 %30.16 in10.0 miESE (110°)5.8 mphClear
12:35 PM82.4 °F51.8 °F35 %30.15 in10.0 miEast (90°)3.5 mphClear
12:55 PM82.4 °F53.6 °F37 %30.14 in10.0 miEast (80°)5.8 mphClear
1:15 PM84.2 °F55.4 °F37 %30.14 in10.0 miCalmClear
1:35 PM84.2 °F53.6 °F35 %30.14 in10.0 miESE (110°)6.9 mphClear
1:55 PM84.2 °F53.6 °F35 %30.14 in10.0 miSE (130°)3.5 mphClear
2:15 PM84.2 °F51.8 °F33 %30.13 in10.0 miNE (50°)6.9 mphClear
2:35 PM84.2 °F51.8 °F33 %30.13 in10.0 miWNW (300°)3.5 mphClear
2:55 PM86.0 °F50.0 °F29 %30.13 in10.0 miEast (100°)6.9 mphClear
3:15 PM86.0 °F51.8 °F31 %30.12 in10.0 miWSW (250°)5.8 mphClear
3:35 PM86.0 °F51.8 °F31 %30.11 in10.0 miWest (260°)5.8 mphClear
3:55 PM86.0 °F48.2 °F27 %30.11 in10.0 miCalmClear
4:15 PM87.8 °F50.0 °F27 %30.10 in10.0 miCalmClear
4:35 PM86.0 °F53.6 °F33 %30.10 in10.0 miNNE (30°)4.6 mphScattered Clouds
4:55 PM86.0 °F51.8 °F31 %30.10 in10.0 miNorth (360°)4.6 mphScattered Clouds
5:15 PM86.0 °F51.8 °F31 %30.10 in10.0 miCalmClear
5:35 PM86.0 °F51.8 °F31 %30.10 in10.0 miCalmClear
5:55 PM86.0 °F50.0 °F29 %30.10 in10.0 miCalmClear
6:15 PM86.0 °F50.0 °F29 %30.10 in10.0 miNW (310°)3.5 mphClear
6:35 PM86.0 °F50.0 °F29 %30.10 in10.0 miNNW (340°)3.5 mphClear
6:55 PM84.2 °F50.0 °F30 %30.10 in10.0 miCalmClear
7:15 PM84.2 °F51.8 °F33 %30.10 in10.0 miCalmClear
7:35 PM80.6 °F59.0 °F48 %30.12 in10.0 miNNW (340°)8.1 mphClear
7:55 PM78.8 °F59.0 °F51 %30.12 in10.0 miNNW (330°)4.6 mphClear
8:15 PM78.8 °F59.0 °F51 %30.12 in10.0 miNNW (330°)3.5 mphClear
8:35 PM77.0 °F59.0 °F54 %30.13 in10.0 miNNW (340°)3.5 mphClear
8:55 PM75.2 °F59.0 °F57 %30.14 in10.0 miNNW (330°)3.5 mphClear
9:15 PM75.2 °F59.0 °F57 %30.14 in10.0 miNNW (340°)3.5 mphClear
9:35 PM75.2 °F60.8 °F61 %30.15 in10.0 miNNW (330°)4.6 mphClear
9:55 PM73.4 °F60.8 °F65 %30.16 in10.0 miCalmClear
11:15 PM69.8 °F60.8 °F73 %30.17 in10.0 miEast (100°)3.5 mphClear
11:35 PM69.8 °F60.8 °F73 %30.16 in10.0 miESE (120°)5.8 mphClear
11:55 PM71.6 °F62.6 °F73 %30.17 in10.0 miSE (130°)5.8 mphClear
Hourly data recorded from KPCM, located 2.78 miles away from Playa del Carmen, Quintana Roo







STORIES FROM OUR PARTNERS